Weather in Cauayan

Philippines     9°58′22″N   122°36′33″E
temp.,
°C
wind,
m/s
gust,
m/s
humid.,
%
clouds,
%
prec.,
mm/h
press.,
hPa
HPBL,
m
13 april, tue
tue1323:00+28ne3575100 0.0 1012561
02:00+27ne5677100 0.1 1010553
05:00+27nne5676100 0.9 1010597
08:00+27nne567746 0.9 1012620
11:00+28nne447471 0.0 1011524
14:00+28n23735 0.0 1008291
17:00+28wnw347521 1.0 1008236
20:00+28w2275100 1.9 1010159
14 april, wed
wed1423:00+28nnw247565 0.0 1011420
02:00+28nne4473100 0.0 1009492
05:00+27ene337455 0.0 1009352
08:00+27ne3473100 0.0 1011507
11:00+27n337599 0.0 1011431
14:00+27nw237275 0.0 1008326
17:00+28nw337122 0.1 1008452
20:00+28wsw117332 2.0 101092
15 april, thu
thu1523:00+27se117314 0.1 1010140
02:00+27nne017410 0.3 1008278
05:00+27e237699 0.0 1008275
08:00+27ene2275100 0.0 1011381
11:00+27nne3376100 0.0 1010456
14:00+28nnw1171100 0.2 1008294
17:00+28wnw227055 0.5 1008431
20:00+27wnw227691 1.1 1010162
16 april, fri
fri1623:00+28nw2273100 0.6 1010413
02:00+28nw2272100 0.6 1009502
05:00+27nne457722 0.1 1009593
08:00+27ne777637 0.4 1012745
11:00+28nne677241 0.0 1011763
14:00+29ne5670100 0.0 1008416
17:00+29nnw3472100 1.0 1008187
20:00+29nne577697 1.5 1010335
17 april, sat
sat1723:00+28ne557785 0.0 1011428
02:00+27ne567729 0.0 1009652
05:00+27ne7878100 0.0 1009750
08:00+28ne7875100 0.0 1011861
11:00+28nne6772100 0.0 1011899
14:00+28ne677142 0.3 1009405
17:00+29wnw3471100 0.2 1008387
20:00+28w227483 0.2 1010264